TimeCDT,TemperatureF,Dew PointF,Humidity,Sea Level PressureIn,VisibilityMPH,Wind Direction,Wind SpeedMPH,Gust SpeedMPH,PrecipitationIn,Events,Conditions,WindDirDegrees,DateUTC
12:15 AM,71.6,66.2,83,30.17,10.0,South,4.6,-,N/A,,Clear,170,2013-08-25 05:15:00
12:35 AM,71.6,66.2,83,30.18,10.0,South,3.5,-,N/A,,Clear,180,2013-08-25 05:35:00
12:55 AM,71.2,66.4,85,30.18,10.0,SSE,3.5,-,N/A,,Clear,160,2013-08-25 05:55:00
1:15 AM,70.7,66.2,86,30.18,10.0,SSE,3.5,-,N/A,,Clear,150,2013-08-25 06:15:00
1:35 AM,70.0,66.2,88,30.18,10.0,Calm,Calm,-,N/A,,Clear,0,2013-08-25 06:35:00
1:55 AM,69.8,66.0,88,30.18,10.0,Calm,Calm,-,N/A,,Clear,0,2013-08-25 06:55:00
2:15 AM,70.2,66.2,87,30.18,10.0,South,4.6,-,N/A,,Clear,170,2013-08-25 07:15:00
2:35 AM,70.2,66.4,88,30.19,10.0,South,4.6,-,N/A,,Clear,180,2013-08-25 07:35:00
2:55 AM,70.0,66.2,88,30.19,10.0,South,4.6,-,N/A,,Clear,170,2013-08-25 07:55:00
3:15 AM,69.6,66.2,89,30.19,7.0,SSE,4.6,-,N/A,,Clear,160,2013-08-25 08:15:00
3:35 AM,69.1,65.8,89,30.19,7.0,South,4.6,-,N/A,,Clear,170,2013-08-25 08:35:00
3:55 AM,69.4,65.8,88,30.19,10.0,SSE,5.8,-,N/A,,Clear,160,2013-08-25 08:55:00
4:15 AM,68.9,65.5,89,30.20,7.0,SSE,4.6,-,N/A,,Clear,160,2013-08-25 09:15:00
4:35 AM,68.7,65.5,89,30.20,7.0,SSE,5.8,-,N/A,,Clear,160,2013-08-25 09:35:00
4:55 AM,68.9,65.5,89,30.20,7.0,SSE,5.8,-,N/A,,Clear,160,2013-08-25 09:55:00
5:15 AM,68.4,65.1,89,30.20,7.0,Calm,Calm,-,N/A,,Clear,0,2013-08-25 10:15:00
5:35 AM,68.0,64.6,89,30.21,7.0,South,4.6,-,N/A,,Clear,170,2013-08-25 10:35:00
5:55 AM,68.4,64.8,88,30.21,10.0,SSE,4.6,-,N/A,,Clear,160,2013-08-25 10:55:00
6:15 AM,68.2,64.6,88,30.22,7.0,SSE,4.6,-,N/A,,Clear,160,2013-08-25 11:15:00
6:35 AM,68.0,64.6,89,30.22,7.0,SSE,4.6,-,N/A,,Clear,160,2013-08-25 11:35:00
6:55 AM,68.0,64.6,89,30.22,7.0,SSE,5.8,-,N/A,,Clear,150,2013-08-25 11:55:00
7:15 AM,69.3,65.3,87,30.23,7.0,SSE,4.6,-,N/A,,Clear,160,2013-08-25 12:15:00
7:35 AM,70.7,65.7,84,30.23,10.0,SSE,5.8,-,N/A,,Clear,150,2013-08-25 12:35:00
7:55 AM,71.1,65.7,83,30.23,10.0,SSE,3.5,-,N/A,,Clear,150,2013-08-25 12:55:00
8:15 AM,72.7,66.2,80,30.23,10.0,SSE,3.5,-,N/A,,Clear,150,2013-08-25 13:15:00
8:35 AM,75.9,66.2,72,30.23,10.0,South,4.6,-,N/A,,Clear,190,2013-08-25 13:35:00
8:55 AM,76.6,66.0,70,30.23,10.0,South,5.8,-,N/A,,Clear,180,2013-08-25 13:55:00
9:15 AM,78.1,66.2,67,30.23,10.0,South,9.2,-,N/A,,Clear,190,2013-08-25 14:15:00
9:35 AM,80.1,66.7,64,30.23,10.0,SSW,9.2,-,N/A,,Clear,200,2013-08-25 14:35:00
9:55 AM,81.5,66.9,61,30.22,10.0,SW,8.1,-,N/A,,Clear,230,2013-08-25 14:55:00
10:15 AM,82.6,66.6,58,30.22,10.0,SW,6.9,-,N/A,,Clear,230,2013-08-25 15:15:00
10:35 AM,84.0,66.6,56,30.22,10.0,SSW,6.9,-,N/A,,Clear,210,2013-08-25 15:35:00
10:55 AM,85.1,66.6,54,30.22,10.0,SW,8.1,-,N/A,,Clear,220,2013-08-25 15:55:00
11:15 AM,86.0,66.4,52,30.21,10.0,SW,9.2,-,N/A,,Clear,230,2013-08-25 16:15:00
11:35 AM,86.2,66.4,51,30.21,10.0,SW,10.4,-,N/A,,Clear,220,2013-08-25 16:35:00
11:55 AM,87.4,66.6,50,30.20,10.0,SW,12.7,16.1,N/A,,Clear,220,2013-08-25 16:55:00
12:15 PM,88.2,65.8,47,30.20,10.0,SW,10.4,-,N/A,,Clear,230,2013-08-25 17:15:00
12:35 PM,89.1,65.5,45,30.19,10.0,SSW,11.5,-,N/A,,Clear,210,2013-08-25 17:35:00
12:55 PM,89.6,65.3,44,30.18,10.0,SSW,10.4,-,N/A,,Clear,210,2013-08-25 17:55:00
1:15 PM,89.8,64.6,43,30.18,10.0,SSW,11.5,-,N/A,,Clear,200,2013-08-25 18:15:00
1:35 PM,90.3,63.0,40,30.18,10.0,SSW,11.5,-,N/A,,Clear,200,2013-08-25 18:35:00
1:55 PM,90.9,61.3,37,30.17,10.0,SSW,12.7,17.3,N/A,,Clear,200,2013-08-25 18:55:00
2:15 PM,90.9,58.8,34,30.17,10.0,SW,9.2,16.1,N/A,,Clear,220,2013-08-25 19:15:00
2:35 PM,91.0,62.2,38,30.16,10.0,SSW,12.7,-,N/A,,Clear,200,2013-08-25 19:35:00
2:55 PM,92.1,61.5,36,30.16,10.0,SSW,11.5,-,N/A,,Clear,200,2013-08-25 19:55:00
3:15 PM,91.9,59.5,34,30.16,10.0,SSW,11.5,-,N/A,,Clear,200,2013-08-25 20:15:00
3:35 PM,91.2,62.4,38,30.15,10.0,SSW,11.5,17.3,N/A,,Clear,210,2013-08-25 20:35:00
3:55 PM,91.4,60.6,36,30.15,10.0,SSW,10.4,-,N/A,,Clear,200,2013-08-25 20:55:00
4:15 PM,90.7,62.6,39,30.14,10.0,SSW,10.4,-,N/A,,Clear,210,2013-08-25 21:15:00
4:35 PM,91.4,62.8,38,30.14,10.0,South,10.4,-,N/A,,Clear,190,2013-08-25 21:35:00
4:55 PM,90.9,62.2,38,30.14,10.0,South,13.8,-,N/A,,Clear,190,2013-08-25 21:55:00
5:15 PM,90.5,62.1,39,30.13,10.0,SSW,11.5,16.1,N/A,,Clear,200,2013-08-25 22:15:00
5:35 PM,89.8,63.1,41,30.13,10.0,South,9.2,17.3,N/A,,Clear,190,2013-08-25 22:35:00
5:55 PM,88.9,63.7,43,30.13,10.0,South,10.4,-,N/A,,Clear,190,2013-08-25 22:55:00
6:15 PM,88.0,64.8,46,30.13,10.0,SSW,9.2,-,N/A,,Clear,200,2013-08-25 23:15:00
6:35 PM,86.7,65.3,49,30.13,10.0,SSW,6.9,-,N/A,,Clear,200,2013-08-25 23:35:00
6:55 PM,85.6,66.4,52,30.13,10.0,South,8.1,-,N/A,,Clear,190,2013-08-25 23:55:00
7:15 PM,83.8,66.9,57,30.13,10.0,South,8.1,-,N/A,,Clear,190,2013-08-26 00:15:00
7:35 PM,82.6,66.4,58,30.13,10.0,South,9.2,-,N/A,,Clear,180,2013-08-26 00:35:00
7:55 PM,80.8,66.2,61,30.13,10.0,South,8.1,-,N/A,,Clear,180,2013-08-26 00:55:00
8:15 PM,78.8,66.4,66,30.13,10.0,SSE,6.9,-,N/A,,Clear,160,2013-08-26 01:15:00
8:35 PM,77.4,66.9,70,30.13,10.0,South,6.9,-,N/A,,Clear,170,2013-08-26 01:35:00
8:55 PM,76.5,66.6,71,30.14,10.0,SSE,6.9,-,N/A,,Clear,160,2013-08-26 01:55:00
9:15 PM,76.1,66.2,71,30.15,10.0,South,8.1,-,N/A,,Clear,170,2013-08-26 02:15:00
9:35 PM,77.0,65.7,68,30.15,10.0,South,9.2,-,N/A,,Clear,170,2013-08-26 02:35:00
9:55 PM,76.1,65.8,70,30.15,10.0,South,8.1,-,N/A,,Clear,170,2013-08-26 02:55:00
10:15 PM,75.4,65.8,72,30.15,10.0,South,6.9,-,N/A,,Clear,170,2013-08-26 03:15:00
10:35 PM,74.7,65.7,73,30.15,10.0,SSE,6.9,-,N/A,,Clear,160,2013-08-26 03:35:00
10:55 PM,73.4,65.7,77,30.16,10.0,South,5.8,-,N/A,,Clear,170,2013-08-26 03:55:00
11:15 PM,71.1,65.5,82,30.15,10.0,SSE,5.8,-,N/A,,Clear,150,2013-08-26 04:15:00
11:35 PM,70.7,65.5,83,30.15,10.0,SSE,5.8,-,N/A,,Clear,150,2013-08-26 04:35:00
11:55 PM,70.7,65.5,83,30.15,10.0,SSE,5.8,-,N/A,,Clear,160,2013-08-26 04:55:00